Location: Boley
(53.1150°N, 8.2269°W)
Time: 23:24:31
(UTC+00:00)

Cosmos 2082 Rocket - Pass Details

Date: 15 May 2026
Orbit: 832 x 852 km, 71.0° (Epoch: 6 June)

Event Time Altitude Azimuth Distance (km) Brightness Sun altitude
Rises 22:22:16 0° 242° (WSW) 3,416 5.4 -12.8°
Reaches altitude 10° 22:24:55 10° 251° (WSW) 2,482 4.8 -13.0°
Maximum altitude 22:30:08 35° 317° (NW) 1,344 4.0 -13.4°
Drops below altitude 10° 22:35:21 10° 23° (NNE) 2,486 5.2 -13.7°
Sets 22:38:02 0° 32° (NNE) 3,422 5.8 -13.9°
